Vertical_Velocity
-3 -3 -1 0 -1 0 2 5 1 2 1 -0 4 0 -1 -3 -4 -4 3 2 -6 2 5 4 2 3 5 -1 -2 -2 -36 -9 3 5 38 12 4 11 -3 13 1 -17 8 6 1
-4 -4 1 -3 -3 2 5 -1 -0 5 3 0 1 2 -2 -3 3 -0 6 2 -4 -1 -3 -1 -2 -3 -2 7 -4 -4 -20 -4 17 13 11 2 -4 5 -8 6 -11 -1 2 1 -1
-0 -2 -1 -4 5 6 1 1 2 2 2 1 3 0 1 -1 3 3 2 2 3 3 -0 -2 4 -5 -1 3 -8 -10 -48 37 9 12 8 -6 3 8 -6 4 -8 1 -3 -2 2
-1 -2 -0 1 0 1 1 2 2 2 1 0 1 1 -1 -2 1 2 -0 -0 -2 -4 -2 1 4 -5 0 -4 7 -27 -13 6 5 6 5 -7 9 -3 -2 12 -8 -4 4 -1 1
-2 -3 -3 -0 1 0 2 1 1 4 1 -1 0 -2 -1 -1 -1 -1 -4 0 -0 -1 -3 -2 1 -4 -8 -4 2 -32 22 -2 0 8 1 -1 -0 7 -10 5 -8 -9 0 -1 1
-1 -2 -2 -1 1 0 -0 1 1 1 -0 1 1 2 2 -1 -1 0 -2 -3 -3 -1 1 -0 -2 -5 -8 -0 -12 4 -1 -4 -2 2 -7 -16 30 -15 -5 3 -21 -6 1 2 5
-0 -1 -1 -1 -1 -1 0 3 2 1 -1 1 1 -0 0 -0 -0 -0 0 2 0 -1 0 -7 -1 -3 -5 -5 1 -2 -18 -6 -4 9 -7 2 -2 -32 12 5 -12 -7 1 0 3
0 -0 0 -0 0 0 1 2 1 0 -1 -1 -1 0 -0 0 2 0 -2 -6 -5 -4 -2 1 -1 -3 -1 -0 -4 -7 -15 -3 47 12 -3 10 -19 -4 19 13 9 -11 -2 -4 2
1 -1 1 0 1 1 0 3 3 2 -0 0 3 -2 -2 -2 -3 -5 -4 -8 -5 -6 -11 -2 -5 -1 -3 -0 -2 -8 -21 -12 15 5 13 -1 -15 9 30 18 5 -17 3 2 0
2 -1 1 -1 0 2 1 1 1 2 0 0 -3 -2 1 -6 -4 -6 -8 -13 -13 -8 -4 -8 -10 -2 8 -1 -25 17 -13 -1 -4 17 -1 17 -28 10 22 5 7 5 8 -2 -6
3 0 1 0 1 2 -0 -1 -2 -2 0 -2 -3 1 2 -5 -9 -9 -10 -5 -7 -7 -7 -9 -4 1 -4 -4 0 7 -1 -6 7 12 -10 21 -28 9 28 3 5 -2 4 -7 -6
2 0 -1 1 3 2 0 -1 -1 -2 -1 -2 1 -3 -5 -7 -5 -8 -8 -11 -10 -7 -12 -4 -6 -7 -1 -1 1 3 3 5 7 19 0 16 -23 8 6 1 -1 1 0 -2 -1
0 2 -1 -1 -0 1 0 -1 -1 -1 -3 -1 -0 -4 -4 -6 -7 -6 -6 -9 -8 -5 -5 -7 -3 -2 -3 -0 0 2 1 11 0 17 2 25 -23 -14 13 2 6 0 1 15 -9
-1 2 0 1 1 -2 0 -1 1 1 -3 -2 -3 -5 -3 -8 -6 -9 -13 -14 -14 -7 -0 -2 -1 -5 -2 -5 -0 1 0 8 8 8 16 -14 -27 -3 10 12 -11 -0 -4 -4 15
-0 1 1 1 1 -1 -0 -1 -2 0 -5 -1 -1 -3 -6 -7 -5 -8 -9 -1 -12 -12 -5 -3 1 6 2 8 1 -3 1 3 -4 8 12 -5 -23 28 -7 6 0 10 22 21 9
-1 0 1 0 2 1 0 0 -1 0 -1 -1 -2 -3 -1 -6 -5 -7 -10 -4 -1 -3 -4 -0 -1 -4 -4 2 1 5 -2 9 7 5 -4 4 10 15 3 -5 -3 8 -4 12 9
-0 -0 1 -0 0 0 1 2 0 -1 -1 -1 -2 -2 -3 -6 -4 -6 -4 -11 -15 -4 -1 -2 -5 5 -3 -3 2 7 9 -1 -2 -4 -14 7 2 -8 -2 13 5 4 -6 -5 7
0 0 1 1 -1 -0 1 1 -0 -1 -0 0 -1 -1 -4 2 -6 -1 -5 -0 1 -0 -1 -3 -4 -0 -3 -2 9 7 -3 -1 -5 -5 -1 11 9 -18 4 1 -1 -16 -10 -5 -4
0 0 1 0 -1 -1 -0 -0 -0 0 -1 -2 1 -2 -2 -7 -6 -5 -4 -8 -6 -6 -8 1 -3 1 1 -0 1 10 12 0 3 6 10 -0 5 0 8 6 3 3 -4 2 1
1 -0 2 -0 -1 1 -0 1 -1 -1 -0 -3 -2 -0 -1 0 -3 -5 -3 -6 -8 -4 -5 -5 -5 -3 -1 9 1 7 -0 7 -3 3 -2 3 6 4 7 1 -7 4 7 -4 -4
1 -0 1 -0 -1 -0 -0 -1 -2 -2 -1 0 -1 0 -1 -3 -4 -4 -3 -2 -7 -6 -3 -3 -6 -4 -1 2 1 -2 8 33 3 5 3 10 4 -6 -1 11 1 1 1 6 17
1 1 0 -2 -1 -1 -0 -0 0 -1 -1 -1 -0 -1 -2 -4 -3 -3 -1 -2 -6 -5 1 1 2 -1 -2 -1 3 -0 2 4 18 3 6 14 -1 -6 -3 4 -4 -1 -3 1 1
-0 3 -0 1 0 -1 -0 -2 -2 -1 -1 -2 1 -1 -0 -1 -2 -4 -3 -1 -1 -0 -3 -2 -3 -5 1 2 -3 5 -3 2 1 1 12 21 13 -5 -8 2 -2 15 -9 -3 8
3 -2 2 1 0 -1 -1 -1 -0 -0 -1 -2 0 0 -2 -2 -1 -1 -3 -1 -4 -3 -1 -1 -1 -0 -0 -2 -1 -8 -2 -1 -0 -5 -19 -6 4 8 24 10 11 -4 27 6 -6
-0 2 3 4 1 0 -1 0 0 -1 -1 -1 0 0 -2 -2 -2 -4 -4 -6 -3 -4 -2 -2 -3 -4 -0 2 -1 -1 -6 -4 8 7 -1 -1 -1 1 2 13 11 11 3 -1 18
-1 3 -1 4 1 0 -1 -1 -1 1 -1 -2 -2 -1 -0 -0 -0 0 -4 -3 -3 -2 -4 -1 -0 -1 -1 -3 -3 -3 -1 -1 -8 -0 7 -2 -4 -4 2 -8 1 13 15 12 7
-1 -0 -1 3 1 1 -1 -2 -1 -0 0 -0 -1 -3 -3 1 1 1 -0 -3 -1 -1 -3 -3 -4 -2 -5 -3 -3 -3 -3 -3 -2 -4 -4 -2 -5 -3 -2 -5 -6 -6 3 11 10
Height
5721 5721 5720 5719 5720 5721 5724 5729 5734 5739 5743 5747 5749 5752 5754 5757 5760 5763 5765 5766 5767 5769 5771 5772 5775 5778 5780 5783 5787 5789 5793 5797 5804 5812 5819 5824 5825 5828 5831 5836 5836 5837 5844 5851 5853
5720 5719 5717 5719 5719 5721 5724 5727 5730 5735 5739 5743 5745 5747 5749 5752 5754 5756 5757 5756 5758 5759 5762 5764 5764 5768 5769 5772 5774 5779 5783 5796 5800 5802 5809 5812 5814 5818 5822 5828 5829 5834 5838 5843 5847
5719 5718 5718 5718 5719 5721 5723 5727 5730 5733 5736 5739 5741 5743 5745 5746 5748 5749 5749 5749 5751 5752 5752 5753 5754 5757 5759 5761 5763 5767 5777 5793 5787 5789 5795 5803 5805 5809 5814 5819 5823 5826 5830 5837 5840
5720 5719 5719 5719 5720 5721 5723 5725 5728 5731 5734 5736 5737 5739 5740 5741 5743 5742 5742 5743 5743 5743 5742 5742 5744 5744 5747 5748 5751 5755 5772 5775 5777 5772 5782 5792 5796 5800 5805 5813 5814 5818 5823 5827 5833
5720 5719 5719 5719 5720 5721 5722 5724 5727 5729 5731 5731 5733 5734 5735 5736 5736 5736 5736 5736 5736 5734 5732 5730 5730 5732 5733 5736 5737 5745 5766 5756 5757 5760 5768 5779 5787 5790 5797 5803 5807 5811 5816 5819 5824
5718 5718 5718 5719 5720 5721 5721 5723 5725 5726 5727 5728 5728 5729 5729 5729 5728 5727 5726 5724 5724 5722 5721 5719 5717 5718 5720 5722 5725 5736 5742 5741 5742 5751 5756 5767 5774 5773 5795 5798 5801 5805 5805 5810 5816
5716 5716 5717 5717 5718 5719 5720 5721 5722 5723 5723 5724 5724 5723 5723 5723 5720 5718 5716 5713 5710 5707 5705 5701 5699 5700 5702 5707 5710 5718 5723 5727 5733 5744 5747 5751 5752 5767 5796 5786 5791 5797 5796 5798 5808
5715 5714 5713 5714 5715 5716 5717 5718 5719 5720 5719 5718 5718 5717 5715 5714 5711 5708 5704 5699 5693 5687 5681 5677 5675 5676 5680 5685 5691 5698 5702 5711 5732 5730 5735 5736 5744 5763 5783 5772 5780 5785 5787 5786 5795
5713 5712 5711 5712 5712 5713 5714 5715 5716 5715 5714 5713 5712 5709 5707 5704 5701 5696 5690 5683 5676 5667 5658 5652 5650 5651 5655 5658 5663 5675 5689 5696 5710 5712 5717 5712 5734 5752 5763 5760 5766 5772 5776 5778 5782
5711 5710 5709 5709 5710 5710 5711 5711 5711 5711 5710 5708 5705 5705 5701 5695 5691 5684 5677 5668 5659 5648 5640 5630 5625 5625 5626 5624 5638 5652 5658 5669 5684 5693 5697 5698 5716 5735 5740 5745 5753 5757 5764 5768 5767
5709 5708 5708 5708 5708 5707 5707 5707 5708 5707 5704 5703 5700 5697 5693 5688 5683 5677 5670 5659 5645 5632 5619 5609 5604 5600 5599 5601 5611 5621 5631 5643 5663 5668 5677 5679 5699 5714 5724 5727 5737 5745 5752 5756 5761
5707 5706 5706 5706 5706 5705 5704 5703 5703 5702 5700 5697 5694 5691 5687 5683 5678 5670 5660 5646 5632 5619 5603 5594 5588 5582 5580 5582 5584 5591 5605 5622 5637 5647 5654 5662 5675 5692 5703 5710 5722 5733 5742 5749 5754
5703 5703 5703 5703 5703 5702 5701 5700 5699 5697 5695 5693 5690 5686 5682 5678 5671 5663 5653 5636 5620 5607 5593 5584 5580 5576 5571 5570 5571 5573 5584 5603 5616 5629 5634 5648 5653 5679 5690 5697 5710 5721 5731 5738 5744
5699 5700 5700 5700 5701 5698 5698 5697 5695 5693 5691 5689 5685 5681 5677 5670 5664 5653 5639 5625 5610 5598 5587 5579 5575 5572 5569 5566 5564 5563 5576 5590 5603 5614 5623 5630 5637 5664 5674 5681 5693 5708 5718 5728 5736
5695 5695 5696 5696 5696 5695 5694 5692 5690 5689 5687 5685 5680 5676 5670 5665 5656 5644 5631 5619 5603 5590 5579 5576 5572 5569 5567 5563 5559 5560 5569 5582 5595 5606 5615 5628 5631 5655 5663 5674 5684 5700 5707 5713 5720
5690 5690 5691 5691 5691 5691 5690 5689 5687 5686 5682 5680 5675 5671 5665 5658 5651 5640 5627 5614 5600 5586 5574 5574 5571 5568 5564 5562 5559 5560 5565 5577 5588 5596 5604 5621 5625 5639 5649 5658 5669 5676 5683 5693 5703
5685 5686 5686 5686 5686 5686 5686 5685 5684 5680 5679 5676 5671 5666 5660 5653 5645 5636 5626 5615 5600 5590 5579 5574 5571 5569 5564 5562 5560 5562 5565 5572 5581 5587 5597 5615 5617 5625 5642 5651 5652 5661 5666 5678 5689
5679 5680 5682 5682 5682 5681 5681 5681 5679 5677 5674 5671 5667 5662 5657 5651 5643 5633 5623 5613 5600 5588 5578 5574 5573 5571 5567 5564 5563 5564 5568 5575 5582 5589 5598 5609 5615 5619 5633 5638 5639 5644 5656 5666 5675
5673 5675 5676 5677 5677 5677 5676 5675 5674 5672 5670 5666 5663 5658 5653 5646 5641 5632 5623 5612 5601 5590 5582 5577 5576 5573 5571 5567 5567 5568 5572 5576 5582 5587 5596 5604 5609 5616 5620 5629 5633 5640 5648 5658 5664
5667 5669 5670 5671 5672 5672 5672 5670 5669 5668 5666 5662 5658 5655 5650 5645 5639 5630 5622 5613 5603 5594 5585 5582 5580 5578 5575 5572 5572 5573 5575 5579 5581 5587 5595 5600 5604 5610 5615 5619 5625 5633 5640 5647 5653
5661 5662 5664 5665 5666 5667 5667 5666 5665 5663 5661 5659 5655 5651 5647 5642 5636 5629 5623 5615 5606 5598 5591 5585 5584 5583 5580 5579 5577 5577 5578 5580 5581 5585 5592 5597 5599 5601 5607 5614 5617 5623 5632 5638 5643
5653 5655 5657 5658 5660 5660 5661 5660 5660 5658 5656 5654 5651 5648 5644 5639 5634 5628 5622 5615 5608 5601 5594 5590 5588 5585 5583 5582 5581 5580 5578 5575 5579 5583 5588 5593 5592 5596 5604 5607 5611 5617 5625 5631 5635
5644 5648 5649 5651 5653 5654 5655 5655 5654 5653 5652 5649 5647 5644 5641 5637 5633 5627 5621 5615 5610 5603 5598 5593 5588 5585 5583 5584 5582 5580 5580 5576 5576 5581 5584 5585 5585 5592 5600 5602 5608 5613 5617 5622 5626
5636 5638 5642 5644 5645 5647 5648 5649 5649 5648 5647 5645 5642 5640 5637 5634 5630 5626 5620 5616 5610 5605 5599 5593 5590 5586 5584 5581 5580 5581 5578 5579 5578 5578 5576 5583 5584 5587 5591 5595 5600 5603 5605 5607 5615
5626 5630 5633 5636 5638 5640 5641 5643 5642 5642 5642 5640 5638 5635 5633 5631 5627 5623 5618 5613 5609 5604 5600 5595 5590 5586 5584 5582 5579 5579 5580 5578 5578 5576 5579 5582 5582 5579 5584 5590 5593 5594 5597 5600 5602
5616 5621 5624 5628 5630 5632 5634 5635 5636 5636 5636 5635 5633 5631 5629 5627 5625 5620 5617 5613 5609 5605 5600 5595 5591 5587 5584 5581 5578 5578 5577 5577 5578 5575 5575 5577 5578 5577 5576 5577 5584 5586 5588 5590 5593
5604 5611 5615 5619 5622 5625 5627 5628 5629 5629 5630 5629 5627 5625 5624 5623 5621 5618 5614 5611 5607 5603 5599 5595 5591 5586 5582 5579 5577 5576 5574 5573 5573 5572 5573 5572 5572 5572 5569 5570 5572 5576 5577 5578 5579